Time,TemperatureF,DewpointF,PressureIn,WindDirection,WindDirectionDegrees,WindSpeedMPH,WindSpeedGustMPH,Humidity,HourlyPrecipIn,Conditions,Clouds,dailyrainin,SoftwareType,DateUTC
2015-02-01 00:00:00,53.3,50.4,30.21,East,80,0.0,0.0,90,0.00,,,0.00,Wunderground v.1.15,2015-02-01 05:00:00,
2015-02-01 00:10:00,52.9,50.0,30.20,East,80,0.0,0.0,90,0.00,,,0.00,Wunderground v.1.15,2015-02-01 05:10:00,
2015-02-01 00:15:00,52.7,49.8,30.20,East,80,0.0,0.0,90,0.00,,,0.00,Wunderground v.1.15,2015-02-01 05:15:00,
2015-02-01 00:20:00,52.5,49.9,30.20,East,80,0.0,0.0,91,0.00,,,0.00,Wunderground v.1.15,2015-02-01 05:20:00,
2015-02-01 00:25:00,52.5,49.9,30.20,East,80,0.0,0.0,91,0.00,,,0.00,Wunderground v.1.15,2015-02-01 05:25:00,
2015-02-01 00:30:00,52.4,50.1,30.20,East,80,0.0,0.0,92,0.00,,,0.00,Wunderground v.1.15,2015-02-01 05:30:00,
2015-02-01 00:35:00,52.3,50.0,30.20,East,80,0.0,0.0,92,0.00,,,0.00,Wunderground v.1.15,2015-02-01 05:35:00,
2015-02-01 00:40:00,52.2,49.9,30.20,East,80,0.0,0.0,92,0.00,,,0.00,Wunderground v.1.15,2015-02-01 05:40:00,
2015-02-01 00:45:00,52.2,49.9,30.20,East,80,0.0,0.0,92,0.00,,,0.00,Wunderground v.1.15,2015-02-01 05:45:00,
2015-02-01 00:50:00,52.0,49.7,30.20,East,80,0.0,0.0,92,0.00,,,0.00,Wunderground v.1.15,2015-02-01 05:50:00,
2015-02-01 00:55:00,51.8,49.5,30.20,East,80,0.0,0.0,92,0.00,,,0.00,Wunderground v.1.15,2015-02-01 05:55:00,
2015-02-01 01:00:00,51.6,49.4,30.20,East,80,0.0,0.0,92,0.00,,,0.00,Wunderground v.1.15,2015-02-01 06:00:00,
2015-02-01 01:10:00,51.4,49.4,30.20,East,80,0.0,0.0,93,0.00,,,0.00,Wunderground v.1.15,2015-02-01 06:10:00,
2015-02-01 01:15:00,51.4,49.4,30.20,East,80,0.0,0.0,93,0.00,,,0.00,Wunderground v.1.15,2015-02-01 06:15:00,
2015-02-01 01:20:00,51.3,49.3,30.20,East,80,0.0,0.0,93,0.00,,,0.00,Wunderground v.1.15,2015-02-01 06:20:00,
2015-02-01 01:30:00,50.9,48.9,30.20,East,80,0.0,0.0,93,0.00,,,0.00,Wunderground v.1.15,2015-02-01 06:30:00,
2015-02-01 01:35:00,50.8,48.8,30.20,East,80,0.0,0.0,93,0.00,,,0.00,Wunderground v.1.15,2015-02-01 06:35:00,
2015-02-01 01:40:00,50.7,49.0,30.20,East,80,0.0,0.0,94,0.00,,,0.00,Wunderground v.1.15,2015-02-01 06:40:00,
2015-02-01 01:45:00,50.6,48.9,30.20,East,80,0.0,0.0,94,0.00,,,0.00,Wunderground v.1.15,2015-02-01 06:45:00,
2015-02-01 01:50:00,50.5,48.8,30.20,East,80,0.0,0.0,94,0.00,,,0.00,Wunderground v.1.15,2015-02-01 06:50:00,
2015-02-01 01:55:00,50.4,48.7,30.20,East,80,0.0,0.0,94,0.00,,,0.00,Wunderground v.1.15,2015-02-01 06:55:00,
2015-02-01 02:00:00,50.2,48.5,30.20,East,80,0.0,0.0,94,0.00,,,0.00,Wunderground v.1.15,2015-02-01 07:00:00,
2015-02-01 02:05:00,50.1,48.4,30.19,East,80,0.0,0.0,94,0.00,,,0.00,Wunderground v.1.15,2015-02-01 07:05:00,
2015-02-01 02:15:00,50.0,48.6,30.19,East,80,0.0,0.0,95,0.00,,,0.00,Wunderground v.1.15,2015-02-01 07:15:00,
2015-02-01 02:20:00,49.9,48.5,30.19,East,80,0.0,0.0,95,0.00,,,0.00,Wunderground v.1.15,2015-02-01 07:20:00,
2015-02-01 02:25:00,49.9,48.5,30.19,East,80,0.0,0.0,95,0.00,,,0.00,Wunderground v.1.15,2015-02-01 07:25:00,
2015-02-01 02:30:00,49.9,48.5,30.19,SE,128,0.0,0.0,95,0.00,,,0.00,Wunderground v.1.15,2015-02-01 07:30:00,
2015-02-01 02:35:00,49.7,48.3,30.19,SE,128,0.0,0.0,95,0.00,,,0.00,Wunderground v.1.15,2015-02-01 07:35:00,
2015-02-01 02:40:00,49.5,48.1,30.19,SE,128,0.0,0.0,95,0.00,,,0.00,Wunderground v.1.15,2015-02-01 07:40:00,
2015-02-01 02:45:00,49.3,47.9,30.19,SE,128,0.0,0.0,95,0.00,,,0.00,Wunderground v.1.15,2015-02-01 07:45:00,
2015-02-01 02:50:00,49.1,47.7,30.19,SE,128,0.0,0.0,95,0.00,,,0.00,Wunderground v.1.15,2015-02-01 07:50:00,
2015-02-01 02:55:00,49.1,47.7,30.19,SE,128,0.0,0.0,95,0.00,,,0.00,Wunderground v.1.15,2015-02-01 07:55:00,
2015-02-01 03:00:00,49.3,48.2,30.19,SE,128,0.0,0.0,96,0.00,,,0.00,Wunderground v.1.15,2015-02-01 08:00:00,
2015-02-01 03:10:00,50.2,49.4,30.18,SE,128,0.0,0.0,97,0.00,,,0.00,Wunderground v.1.15,2015-02-01 08:10:00,
2015-02-01 03:20:00,50.4,49.3,30.18,SE,128,0.0,0.0,96,0.00,,,0.00,Wunderground v.1.15,2015-02-01 08:20:00,
2015-02-01 03:30:00,50.4,49.3,30.18,SE,128,0.0,0.0,96,0.00,,,0.00,Wunderground v.1.15,2015-02-01 08:30:00,
2015-02-01 03:35:00,50.6,49.8,30.17,SE,128,0.0,0.0,97,0.00,,,0.00,Wunderground v.1.15,2015-02-01 08:35:00,
2015-02-01 03:40:00,50.9,50.1,30.17,ESE,114,0.0,0.0,97,0.00,,,0.00,Wunderground v.1.15,2015-02-01 08:40:00,
2015-02-01 03:45:00,51.0,50.2,30.17,ESE,114,0.0,0.0,97,0.00,,,0.00,Wunderground v.1.15,2015-02-01 08:45:00,
2015-02-01 03:50:00,50.9,49.8,30.18,ESE,114,0.0,0.0,96,0.00,,,0.00,Wunderground v.1.15,2015-02-01 08:50:00,
2015-02-01 03:55:00,50.8,49.7,30.18,ESE,114,0.0,0.0,96,0.00,,,0.00,Wunderground v.1.15,2015-02-01 08:55:00,
2015-02-01 04:00:00,50.9,50.1,30.18,ESE,114,0.0,0.0,97,0.00,,,0.00,Wunderground v.1.15,2015-02-01 09:00:00,
2015-02-01 04:05:00,51.0,50.2,30.18,ESE,114,0.0,0.0,97,0.00,,,0.00,Wunderground v.1.15,2015-02-01 09:05:00,
2015-02-01 04:10:00,51.0,50.2,30.18,ESE,114,0.0,0.0,97,0.00,,,0.00,Wunderground v.1.15,2015-02-01 09:10:00,
2015-02-01 04:20:00,51.0,50.2,30.18,ESE,114,0.0,0.0,97,0.00,,,0.00,Wunderground v.1.15,2015-02-01 09:20:00,
2015-02-01 04:25:00,51.2,50.4,30.18,ESE,114,0.0,0.0,97,0.00,,,0.00,Wunderground v.1.15,2015-02-01 09:25:00,
2015-02-01 04:30:00,51.2,50.4,30.18,ESE,114,0.0,0.0,97,0.00,,,0.00,Wunderground v.1.15,2015-02-01 09:30:00,
2015-02-01 04:35:00,51.2,50.4,30.18,ESE,114,0.0,0.0,97,0.00,,,0.00,Wunderground v.1.15,2015-02-01 09:35:00,
2015-02-01 04:40:00,51.1,50.0,30.18,ESE,114,0.0,0.0,96,0.00,,,0.00,Wunderground v.1.15,2015-02-01 09:40:00,
2015-02-01 04:45:00,51.0,50.2,30.18,ESE,114,0.0,0.0,97,0.00,,,0.00,Wunderground v.1.15,2015-02-01 09:45:00,
2015-02-01 04:50:00,51.0,50.2,30.17,ESE,114,0.0,0.0,97,0.00,,,0.00,Wunderground v.1.15,2015-02-01 09:50:00,
2015-02-01 04:55:00,50.9,50.1,30.17,ESE,114,0.0,0.0,97,0.00,,,0.00,Wunderground v.1.15,2015-02-01 09:55:00,
2015-02-01 05:00:00,50.8,49.7,30.17,ESE,114,0.0,0.0,96,0.00,,,0.00,Wunderground v.1.15,2015-02-01 10:00:00,
2015-02-01 05:05:00,50.6,49.8,30.18,ESE,114,0.0,0.0,97,0.00,,,0.00,Wunderground v.1.15,2015-02-01 10:05:00,
2015-02-01 05:10:00,50.8,50.0,30.17,ESE,114,0.0,0.0,97,0.00,,,0.00,Wunderground v.1.15,2015-02-01 10:10:00,
2015-02-01 05:15:00,50.7,49.9,30.17,ESE,114,0.0,0.0,97,0.00,,,0.00,Wunderground v.1.15,2015-02-01 10:15:00,
2015-02-01 05:25:00,50.3,49.2,30.17,ESE,114,0.0,0.0,96,0.00,,,0.00,Wunderground v.1.15,2015-02-01 10:25:00,
2015-02-01 05:30:00,50.4,49.6,30.17,ESE,114,0.0,0.0,97,0.00,,,0.00,Wunderground v.1.15,2015-02-01 10:30:00,
2015-02-01 05:35:00,50.3,49.5,30.17,ESE,114,0.0,0.0,97,0.00,,,0.00,Wunderground v.1.15,2015-02-01 10:35:00,
2015-02-01 05:40:00,50.3,49.5,30.18,ESE,114,0.0,0.0,97,0.00,,,0.00,Wunderground v.1.15,2015-02-01 10:40:00,
2015-02-01 05:45:00,50.3,49.5,30.18,ESE,114,0.0,0.0,97,0.00,,,0.00,Wunderground v.1.15,2015-02-01 10:45:00,
2015-02-01 05:55:00,50.4,49.6,30.19,ESE,114,0.0,0.0,97,0.00,,,0.00,Wunderground v.1.15,2015-02-01 10:55:00,
2015-02-01 06:00:00,50.8,50.3,30.19,ESE,114,0.0,0.0,98,0.00,,,0.00,Wunderground v.1.15,2015-02-01 11:00:00,
2015-02-01 06:05:00,51.1,50.6,30.19,ESE,114,0.0,0.0,98,0.00,,,0.00,Wunderground v.1.15,2015-02-01 11:05:00,
2015-02-01 06:10:00,51.3,50.8,30.19,ESE,114,0.0,0.0,98,0.00,,,0.00,Wunderground v.1.15,2015-02-01 11:10:00,
2015-02-01 06:15:00,51.4,50.9,30.19,ESE,114,0.0,0.0,98,0.00,,,0.00,Wunderground v.1.15,2015-02-01 11:15:00,
2015-02-01 06:25:00,51.5,50.7,30.19,ESE,114,0.0,0.0,97,0.00,,,0.00,Wunderground v.1.15,2015-02-01 11:25:00,
2015-02-01 06:30:00,51.5,50.7,30.19,ESE,114,0.0,0.0,97,0.00,,,0.00,Wunderground v.1.15,2015-02-01 11:30:00,
2015-02-01 06:35:00,51.6,50.8,30.19,ESE,114,0.0,0.0,97,0.00,,,0.00,Wunderground v.1.15,2015-02-01 11:35:00,
2015-02-01 06:40:00,51.6,50.8,30.19,ESE,114,0.0,0.0,97,0.00,,,0.00,Wunderground v.1.15,2015-02-01 11:40:00,
2015-02-01 06:45:00,51.6,50.8,30.20,ESE,114,0.0,0.0,97,0.00,,,0.00,Wunderground v.1.15,2015-02-01 11:45:00,
2015-02-01 06:55:00,51.6,50.8,30.19,ESE,114,0.0,0.0,97,0.00,,,0.00,Wunderground v.1.15,2015-02-01 11:55:00,
2015-02-01 07:00:00,51.6,50.8,30.19,ESE,114,0.0,0.0,97,0.00,,,0.00,Wunderground v.1.15,2015-02-01 12:00:00,
2015-02-01 07:05:00,51.5,50.7,30.19,ESE,114,0.0,0.0,97,0.00,,,0.00,Wunderground v.1.15,2015-02-01 12:05:00,
2015-02-01 07:10:00,51.3,50.5,30.20,ESE,114,0.0,0.0,97,0.00,,,0.00,Wunderground v.1.15,2015-02-01 12:10:00,
2015-02-01 07:15:00,51.3,50.5,30.20,ESE,114,0.0,0.0,97,0.00,,,0.00,Wunderground v.1.15,2015-02-01 12:15:00,
2015-02-01 07:20:00,51.3,50.5,30.20,ESE,114,0.0,0.0,97,0.00,,,0.00,Wunderground v.1.15,2015-02-01 12:20:00,
2015-02-01 07:30:00,51.1,50.3,30.20,ESE,114,0.0,0.0,97,0.00,,,0.00,Wunderground v.1.15,2015-02-01 12:30:00,
2015-02-01 07:35:00,51.1,50.3,30.20,ESE,114,0.0,0.0,97,0.00,,,0.00,Wunderground v.1.15,2015-02-01 12:35:00,
2015-02-01 07:40:00,51.2,50.7,30.20,ESE,114,0.0,0.0,98,0.00,,,0.00,Wunderground v.1.15,2015-02-01 12:40:00,
2015-02-01 07:45:00,51.9,51.4,30.20,ESE,114,0.0,0.0,98,0.00,,,0.00,Wunderground v.1.15,2015-02-01 12:45:00,
2015-02-01 07:50:00,52.3,51.8,30.20,ESE,114,0.0,0.0,98,0.00,,,0.00,Wunderground v.1.15,2015-02-01 12:50:00,
2015-02-01 08:00:00,52.8,52.3,30.20,ESE,114,0.0,0.0,98,0.00,,,0.00,Wunderground v.1.15,2015-02-01 13:00:00,
2015-02-01 08:05:00,53.0,52.5,30.20,ESE,114,0.0,0.0,98,0.00,,,0.00,Wunderground v.1.15,2015-02-01 13:05:00,
2015-02-01 08:10:00,53.4,52.8,30.20,ESE,114,0.0,0.0,98,0.00,,,0.00,Wunderground v.1.15,2015-02-01 13:10:00,